Tracking 31027 objects as of 19-Jul-2025
HD Live streaming from Space Station
objects crossing your sky now

USA 12

Track USA 12 now!
USA 12 is classified as:


NORAD ID: 16117
Int'l Code: 1985-092C
Perigee: 36,129.8 km
Apogee: 36,185.8 km
Inclination: 14.5 °
Period: 1,454.7 minutes
Semi major axis: 42528 km
RCS: Unknown
Launch date: October 3, 1985
Source: United States (US)
Launch site: AIR FORCE EASTERN TEST RANGE (AFETR)
Your satellite tracking list
GEOTAIL
Track 1 satellite(s)




NASA's NSSDC Master Catalog

Two Line Element Set (TLE):
1 16117U 85092C   25199.25044723  .00000029  00000-0  00000-0 0  9994
2 16117  14.4598 348.7171 0006577 132.2312 151.9920  0.98987096 22411
Source of the keplerian elements: McCants